sat.trackr.live / text

‹ back to catalog

LARES

NORAD 38077 · 2012-006A

PAYLOAD ACTIVE UNKNOWN

§ Identity

Operator
Country
IT
Launch date
2012-02-13
Launch site
FRGUI
Launch vehicle
Mass (kg)
RCS (m²)
0.04

Purposes: science

External: N2YO · Heavens-Above · Gunter

§ Orbital elements

Epoch: 2026-09-20T03:17:29.291712Z

Period
114.75 min
Inclination
69.4896°
Eccentricity
0.0010924
Mean motion
12.54932315 rev/d
Perigee alt
1,435.4 km
Apogee alt
1,452.5 km
Semi-major
7,822.1 km
B*
-4.2755e-5
RAAN
130.0683°
Arg perigee
303.3038°
Mean anomaly
56.6942°
Rev number
66,898

§ Raw data

LARES1 38077U 12006A   26263.13714458 -.00000045  00000+0 -42755-4 0  99932 38077  69.4896 130.0683 0010924 303.3038  56.6942 12.54932315668980

JSON: /api/v1/satellites/38077 · /tle

For live sub-satellite position, see the globe view (requires WebGL).

§ Visibility from observer

Set your observer location to see the next 7 days of passes ≥ 10°. The values pass through the URL so the page stays shareable.

No JS? Fill the form by hand. The geolocation button needs JavaScript.